TimeIST,TemperatureF,Dew PointF,Humidity,Sea Level PressureIn,VisibilityMPH,Wind Direction,Wind SpeedMPH,Gust SpeedMPH,PrecipitationIn,Events,Conditions,WindDirDegrees,DateUTC
12:00 AM,42.8,42.8,100,29.92,0.2,WSW,3.5,-,N/A,Fog,Fog,240,2012-12-31 18:30:00
12:30 AM,42.8,42.8,100,29.92,0.2,WSW,3.5,-,N/A,Fog,Fog,250,2012-12-31 19:00:00
1:00 AM,41.0,41.0,100,29.92,0.2,WSW,3.5,-,N/A,,Unknown,250,2012-12-31 19:30:00
1:30 AM,41.0,41.0,100,29.92,0.2,WSW,4.6,-,N/A,Fog,Fog,240,2012-12-31 20:00:00
2:00 AM,41.0,41.0,100,29.92,0.1,WSW,4.6,-,N/A,Fog,Fog,250,2012-12-31 20:30:00
2:30 AM,39.2,39.2,100,29.92,-9999.0,West,5.8,-,N/A,Fog,Fog,260,2012-12-31 21:00:00
3:00 AM,39.2,39.2,100,29.92,-9999.0,West,3.5,-,N/A,Fog,Fog,260,2012-12-31 21:30:00
3:30 AM,41.0,41.0,100,29.89,-9999.0,West,3.5,-,N/A,Fog,Fog,260,2012-12-31 22:00:00
4:00 AM,41.0,41.0,100,29.89,-9999.0,West,3.5,-,N/A,Fog,Fog,260,2012-12-31 22:30:00
4:30 AM,41.0,41.0,100,29.89,-9999.0,WSW,4.6,-,N/A,Fog,Fog,240,2012-12-31 23:00:00
5:00 AM,39.2,39.2,100,29.89,-9999.0,SW,4.6,-,N/A,Fog,Fog,230,2012-12-31 23:30:00
5:30 AM,41.0,41.0,100,29.92,0.0,West,4.6,-,N/A,Fog,Fog,260,2013-01-01 00:00:00
6:00 AM,41.0,41.0,100,29.92,0.0,West,4.6,-,N/A,Fog,Fog,270,2013-01-01 00:30:00
6:30 AM,41.0,41.0,100,29.92,0.0,West,5.8,-,N/A,Fog,Fog,270,2013-01-01 01:00:00
7:00 AM,41.0,41.0,100,29.95,0.0,West,5.8,-,N/A,Fog,Fog,270,2013-01-01 01:30:00
7:30 AM,42.8,42.8,100,29.98,0.0,West,3.5,-,N/A,Fog,Fog,270,2013-01-01 02:00:00
8:00 AM,42.8,42.8,100,29.98,0.0,Calm,Calm,-,N/A,Fog,Fog,0,2013-01-01 02:30:00
8:30 AM,42.8,42.8,100,29.98,0.0,Calm,Calm,-,N/A,Fog,Fog,0,2013-01-01 03:00:00
9:00 AM,42.8,42.8,100,29.98,0.1,North,2.3,-,N/A,Fog,Fog,10,2013-01-01 03:30:00
9:30 AM,42.8,42.8,100,30.04,0.1,Calm,Calm,-,N/A,Fog,Fog,0,2013-01-01 04:00:00
10:00 AM,42.8,42.8,100,30.04,0.2,Calm,Calm,-,N/A,Fog,Fog,0,2013-01-01 04:30:00
10:30 AM,44.6,44.6,100,30.04,0.3,Calm,Calm,-,N/A,Fog,Fog,0,2013-01-01 05:00:00
11:00 AM,44.6,44.6,100,30.04,0.4,NE,3.5,-,N/A,Fog,Shallow Fog,40,2013-01-01 05:30:00
12:30 PM,51.8,51.8,100,30.01,0.6,NE,4.6,-,N/A,,Scattered Clouds,50,2013-01-01 07:00:00
1:00 PM,55.4,53.6,94,30.01,0.7,NNE,4.6,-,N/A,,Scattered Clouds,30,2013-01-01 07:30:00
1:30 PM,57.2,53.6,88,29.98,0.7,NNE,2.3,-,N/A,,Scattered Clouds,30,2013-01-01 08:00:00
2:00 PM,59.0,53.6,82,29.95,0.6,NW,4.6,-,N/A,,Scattered Clouds,320,2013-01-01 08:30:00
2:30 PM,59.0,50.0,72,29.95,0.6,NNE,4.6,-,N/A,,Smoke,20,2013-01-01 09:00:00
3:30 PM,59.0,50.0,72,29.95,0.5,North,6.9,-,N/A,,Smoke,10,2013-01-01 10:00:00
4:00 PM,59.0,48.2,67,29.92,0.6,NNE,6.9,-,N/A,,Smoke,20,2013-01-01 10:30:00
4:30 PM,57.2,48.2,72,29.92,0.7,NNE,5.8,-,N/A,,Smoke,20,2013-01-01 11:00:00
5:00 PM,57.2,48.2,72,29.92,0.9,NNE,5.8,-,N/A,,Smoke,20,2013-01-01 11:30:00
6:00 PM,53.6,50.0,88,29.95,0.9,ENE,4.6,-,N/A,,Partly Cloudy,60,2013-01-01 12:30:00
6:30 PM,53.6,50.0,88,29.95,0.8,ENE,3.5,-,N/A,,Scattered Clouds,70,2013-01-01 13:00:00
7:00 PM,51.8,51.8,100,29.95,0.6,SE,4.6,-,N/A,,Scattered Clouds,130,2013-01-01 13:30:00
8:00 PM,50.0,48.2,94,29.95,0.4,SE,3.5,-,N/A,Fog,Shallow Fog,130,2013-01-01 14:30:00
8:30 PM,50.0,48.2,94,29.95,0.3,Calm,Calm,-,N/A,Fog,Shallow Fog,0,2013-01-01 15:00:00
9:00 PM,50.0,50.0,100,29.98,0.3,Calm,Calm,-,N/A,Fog,Shallow Fog,0,2013-01-01 15:30:00
9:30 PM,50.0,50.0,100,29.98,0.3,Calm,Calm,-,N/A,Fog,Shallow Fog,0,2013-01-01 16:00:00
10:00 PM,46.4,46.4,100,29.98,0.2,Calm,Calm,-,N/A,Fog,Fog,0,2013-01-01 16:30:00
10:30 PM,46.4,46.4,100,29.98,0.1,Calm,Calm,-,N/A,Fog,Fog,0,2013-01-01 17:00:00
11:30 PM,44.6,44.6,100,29.98,0.1,Calm,Calm,-,N/A,Fog,Fog,0,2013-01-01 18:00:00